Location: ???????
(55.7851°N, 37.3548°E)
Time: 14:03:06
(UTC+00:00)

Daily predictions for brighter satellites

Satellite Brightness Start Highest point End
(mag) Time Altitude Azimuth Time Altitude Azimuth Time Altitude Azimuth
CZ-4C R/B 1.9 18:12:28 10° SW 18:16:57 85° SE 18:22:52 10° NE
Cosmos 2016 Rocket 4.1 18:10:59 10° S 18:17:14 87° E 18:23:26 10° NNE
Cosmos 724 4.3 18:12:58 10° SSW 18:18:57 72° SE 18:24:50 10° NE
SL-08 R/B 3.3 18:17:29 10° NNE 18:22:22 80° ESE 18:27:08 10° SSW
CZ-4B R/B 2.6 18:20:36 10° SSE 18:23:56 60° ENE 18:27:23 10° N
NOSS 3-3 (C) 4.1 18:24:37 10° SSW 18:29:38 42° ESE 18:35:37 10° NE
COSMOS 2406 3.7 18:24:51 10° S 18:30:10 40° ESE 18:35:30 10° NE
Cosmos 1980 Rocket 4.0 18:26:57 10° NW 18:31:37 27° WSW 18:36:16 10° SSW
Meteor 1-20 Rocket 4.3 18:26:27 10° NNW 18:32:03 80° ENE 18:37:43 10° SSE
USA 306 2.2 18:29:25 10° SW 18:32:10 32° SSE 18:34:02 10° E
Terra 3.5 18:31:33 10° SSW 18:35:43 31° W 18:39:56 10° NNW
Helios 1A Rocket 3.9 18:33:45 10° N 18:36:43 38° WNW 18:39:39 10° SW
YAOGAN 11 4.1 18:32:23 10° NNE 18:36:50 75° ESE 18:41:17 10° S
Cosmos 1602 Rocket 3.7 18:33:15 10° N 18:37:32 60° ENE 18:41:49 10° SSE
NOSS 3-4 (A) 3.8 18:33:14 10° NW 18:39:39 86° SW 18:47:17 10° SE
NOSS 3-4 (C) 3.8 18:33:51 10° NW 18:40:18 86° SW 18:47:57 10° SE
Cosmos 2333 Rocket 2.3 18:34:34 10° NW 18:40:18 82° WSW 18:46:01 10° SSE
CZ-4 R/B 4.0 18:41:00 10° WSW 18:42:42 13° W 18:44:26 10° WNW
USA 245 4.4 18:38:14 10° SSE 18:44:08 81° WSW 18:49:40 10° NNW
Cosmos 2061 Rocket 4.1 18:41:03 10° S 18:47:19 89° W 18:53:41 10° NNE
Cosmos 1933 3.5 18:45:00 10° S 18:48:40 49° E 18:52:22 10° NNE
Cosmos 44 Rocket 4.0 18:45:21 10° WSW 18:50:27 64° NW 18:55:40 10° NE
ATLAS 2AS CENTAUR R/B 3.7 18:44:38 10° W 18:51:21 52° NNW 18:57:58 10° ENE
Cosmos 1626 Rocket 4.1 18:49:53 10° NNW 18:54:10 57° W 18:58:27 10° S
Cosmos 1607 4.0 18:52:03 10° SW 18:58:15 90° NNW 19:04:36 10° NE
Cosmos 2360 Rocket 2.3 18:52:40 10° NW 18:58:24 86° NE 19:03:37 12° SE
SPOT 3 Rocket 3.8 18:53:31 10° S 18:58:38 67° WSW 19:03:46 10° NNW
Cosmos 1805 2.8 18:56:13 10° N 18:59:29 70° ENE 19:02:14 14° SSE
Cosmos 1782 4.2 18:56:25 10° SW 18:59:40 34° WNW 19:02:56 10° N
Ariane Rocket 3.1 18:57:12 10° SSE 19:02:16 77° WSW 19:07:22 10° NNW
Cosmos 1076 Rocket 4.1 18:58:27 10° N 19:02:34 44° ENE 19:06:00 14° SE
Cosmos 2098 Rocket 3.5 18:58:42 10° SSE 19:03:17 47° E 19:07:14 10° NNE
Cosmos 2333 4.3 18:57:35 10° NW 19:03:21 82° NE 19:08:32 13° SE
Meteor 1-25 Rocket 4.3 18:58:16 10° NNW 19:03:59 81° WSW 19:09:34 10° S
BREEZE-M DEB (TANK) 2.6 19:03:11 10° SW 19:05:09 19° S 19:05:37 17° SSE
Cosmos 220 Rocket 4.3 19:04:28 10° S 19:08:18 43° ESE 19:12:12 10° NE
Cosmos 1536 4.2 19:06:41 10° N 19:09:43 23° ENE 19:12:23 12° ESE
Cosmos 2219 Rocket 2.3 19:06:52 10° NNW 19:12:34 75° NE 19:17:33 14° SE
Helios 1A 4.3 19:10:14 10° NE 19:13:20 22° E 19:15:28 15° SE
Cosmos 1606 Rocket 3.9 19:12:21 13° SSE 19:15:55 46° E 19:20:04 10° NNE
Cosmos 2151 3.8 19:12:57 10° NNW 19:16:54 44° W 19:20:47 10° SSW
Cosmos 1763 Rocket 4.4 19:15:44 14° SSE 19:19:31 31° ESE 19:24:07 10° NE
Helios 1B rocket 3.2 19:18:06 14° ESE 19:20:37 31° ENE 19:23:46 10° N
Okean 1 3.7 19:18:41 17° SSE 19:21:04 38° E 19:24:27 10° NNE
Okean O Rocket 3.6 19:17:56 10° SW 19:21:20 22° W 19:24:44 10° NW
Cosmos 990 Rocket 4.0 19:18:29 10° NNW 19:23:40 77° ENE 19:27:53 16° SE
Cosmos 1726 Rocket 3.9 19:22:24 16° SSE 19:25:14 41° E 19:29:03 10° NNE
Cosmos 2034 Rocket 4.3 19:22:28 13° SSE 19:27:55 52° E 19:34:02 10° NNE
TSX-5 4.3 19:26:09 10° NNW 19:29:05 38° NE 19:31:39 13° ESE
Cosmos 2322 Rocket 2.5 19:23:46 10° NW 19:29:20 60° WSW 19:33:58 15° SSE
Okean 1-7 Rocket 3.7 19:25:21 10° NNW 19:29:48 74° W 19:33:33 15° S
RESURS DK-1 3.5 19:26:38 10° NNW 19:30:20 35° NE 19:34:01 10° ESE
Cosmos 1461 2.5 19:26:49 10° SSW 19:30:27 58° SE 19:34:04 10° NE
Cosmos 1470 4.3 19:29:23 10° NNE 19:31:50 19° ENE 19:33:54 12° ESE
CZ-2C R/B 3.2 19:30:01 13° SSW 19:32:08 34° W 19:34:43 10° NNW
CZ-4B R/B 4.3 19:28:09 10° S 19:32:40 42° W 19:37:17 10° NNW
Cosmos 1777 Rocket 4.4 19:29:41 10° NNW 19:34:49 57° WSW 19:39:00 15° S
Cosmos 2082 Rocket 3.1 19:30:50 10° WSW 19:36:25 53° NW 19:42:02 10° NNE
Cosmos 1544 Rocket 4.5 19:33:33 10° SSW 19:37:44 47° WNW 19:41:56 10° N
GRACE-FO 1 4.4 19:37:11 18° S 19:39:42 88° E 19:43:13 10° N
GRACE-FO 2 4.4 19:37:39 18° S 19:40:09 89° E 19:43:41 10° N
Cosmos 1975 4.5 19:37:47 10° NNE 19:40:39 21° ENE 19:43:05 12° ESE
Cosmos 1437 Rocket 3.5 19:37:15 10° SW 19:40:42 47° WNW 19:44:13 10° N
Cosmos 1503 Rocket 4.2 19:36:40 10° NNW 19:41:49 62° WSW 19:45:44 17° S
Nadezhda 4 Rocket 4.2 19:36:22 10° NNW 19:42:29 71° W 19:47:52 14° S
Cosmos 909 Rocket 4.3 19:36:23 10° SW 19:42:40 79° NW 19:49:30 10° NE
Cosmos 2237 Rocket 3.6 19:42:07 10° NNW 19:47:19 34° NE 19:52:29 10° ESE
NOSS 3-3 (A) 4.1 19:43:25 10° WSW 19:48:55 77° NW 19:55:43 10° NE
Cosmos 44 3.5 19:45:05 10° NW 19:50:33 82° SW 19:54:37 18° SE
Cosmos 1634 Rocket 4.5 19:48:17 17° SSE 19:52:42 46° E 19:58:35 10° NNE
ISS -3.3 19:49:38 10° WSW 19:52:48 39° S 19:54:30 22° SE
Cosmos 1354 Rocket 4.1 19:50:11 10° NNW 19:55:25 68° WSW 19:59:07 19° SSE
COSMOS 2428 3.1 19:50:25 10° NNW 19:56:06 61° NE 20:00:54 14° SE
Cosmos-2242 3.3 19:54:02 21° SSE 19:56:29 48° E 20:00:28 10° NNE
SL-16 R/B 3.8 19:54:08 10° NW 19:58:40 25° WSW 20:03:12 10° SSW
USA 306 2.6 19:56:50 10° WSW 19:58:04 22° WSW 19:58:04 22° WSW
CZ-2C R/B 4.3 19:56:33 10° ESE 20:00:46 25° NE 20:04:56 10° N
KORONAS-FOTON 4.5 19:59:46 23° SE 20:01:05 32° E 20:04:09 10° NNE
USA 290 2.0 20:01:14 21° SSW 20:03:10 71° ESE 20:06:18 10° NNE
Cosmos 1825 Rocket 4.4 20:00:21 10° NNW 20:04:27 42° W 20:07:46 15° SSW
Cosmos 2026 Rocket 4.1 19:59:04 10° NNW 20:05:28 80° W 20:10:23 18° S
Cosmos 1707 2.2 20:04:33 32° SSE 20:05:31 50° E 20:08:18 10° NNE
CZ-4C R/B 3.5 20:00:52 10° W 20:05:42 45° NNW 20:12:00 10° ENE
Cosmos 372 Rocket 4.0 20:02:03 10° NNW 20:07:13 81° ENE 20:10:44 20° SSE
Cosmos 1953 Rocket 3.9 20:05:31 10° NNW 20:09:50 60° W 20:12:42 20° S
COSMOS 2406 4.0 20:08:44 10° SW 20:14:22 54° NW 20:20:01 10° NNE
Aureole 1 Rocket 3.9 20:10:40 10° NNW 20:16:07 74° WSW 20:20:45 20° SSE
Meteor 1-14 Rocket 4.4 20:12:05 10° N 20:17:39 64° ENE 20:21:27 20° SSE
NOSS 3-3 (C) 4.3 20:14:39 10° WSW 20:20:15 67° NNW 20:27:10 10° NE
Cosmos 1271 Rocket 3.4 20:19:21 25° SE 20:20:29 31° E 20:23:32 10° NNE
Cosmos 2221 3.6 20:18:37 20° SE 20:20:32 30° E 20:24:12 10° NNE
Cosmos 540 Rocket 3.4 20:18:42 16° SSW 20:22:51 76° ESE 20:28:00 10° NNE
Cosmos 2058 Rocket 3.0 20:20:44 23° S 20:23:24 75° E 20:27:44 10° NNE
Cosmos 2333 Rocket 4.1 20:19:52 10° WNW 20:23:47 19° W 20:27:41 10° SW
Cosmos 1937 Rocket 3.7 20:19:52 10° NNW 20:25:01 67° ENE 20:28:40 19° SE
Cosmos 1766 3.5 20:24:45 10° NNW 20:27:51 44° W 20:29:18 25° SSW
Geosat 3.9 20:25:02 10° NE 20:30:04 81° ESE 20:34:37 13° SSW
Spot 4 3.8 20:28:46 23° SSE 20:31:44 86° ENE 20:36:34 10° NNW
BREEZE-M R/B 4.4 20:26:02 10° W 20:33:27 51° SSW 20:39:02 10° ESE
Cosmos 468 Rocket 4.2 20:30:46 22° S 20:34:07 58° ESE 20:39:17 10° NNE
Cosmos 1842 2.9 20:33:12 34° SSE 20:34:15 54° E 20:37:21 10° NNE
Cosmos 1833 4.1 20:29:39 12° SSW 20:34:58 83° ESE 20:40:38 10° NE
CZ-2C R/B 4.4 20:31:50 10° NNE 20:36:53 31° E 20:40:12 18° SE
ARIANE 5 R/B 2.6 20:34:30 25° SSE 20:37:05 86° WSW 20:41:35 10° NNW
Cosmos 2297 Rocket 3.8 20:35:27 16° SE 20:37:48 20° E 20:41:48 10° NE
ALOS 2 2.6 20:35:46 25° SSE 20:38:19 83° ENE 20:42:44 10° NNW
Meteor 2-6 Rocket 4.4 20:35:52 21° S 20:39:53 69° E 20:45:48 10° NNE
USA 234 4.0 20:35:59 10° ENE 20:41:39 31° SE 20:44:47 21° S
Cosmos 2360 Rocket 3.8 20:37:25 10° NW 20:41:44 23° WSW 20:45:21 13° SSW
Cosmos 2322 3.7 20:36:03 10° NW 20:41:45 71° WSW 20:45:23 23° SSE
ATLAS 2AS CENTAUR R/B 3.9 20:36:54 10° WNW 20:43:27 45° N 20:49:55 10° E
Cosmos 1536 3.4 20:41:37 10° NNW 20:45:06 41° W 20:46:54 23° SSW
Helios 1A 3.5 20:44:28 10° N 20:48:17 50° WNW 20:51:10 16° SW
Helios 1B rocket 3.4 20:52:03 20° SW 20:53:36 29° W 20:56:43 10° NW
PSLV R/B 3.9 20:51:01 10° NNE 20:55:12 52° E 20:57:18 27° SSE
Cosmos 2219 Rocket 3.5 20:51:22 10° NW 20:56:02 27° WSW 20:59:14 16° SSW
Cosmos 1898 Rocket 3.6 20:51:31 10° NNW 20:56:38 61° WSW 20:59:35 25° S
SeaSat 1 3.1 20:55:07 11° ESE 20:59:47 53° NE 21:04:33 10° NNW
Cosmos 1766 Rocket 4.4 20:56:46 10° N 21:00:52 41° ENE 21:03:33 19° SE
Cosmos 1763 Rocket 4.0 20:55:45 10° SW 21:00:58 59° NW 21:06:12 10° NNE
Meteor 1-19 Rocket 4.5 20:57:24 23° S 21:00:59 63° E 21:06:52 10° NNE
Cosmos 1470 3.1 21:02:46 10° NNW 21:05:56 42° W 21:07:06 29° SW
Cosmos 1461 4.3 21:03:31 10° W 21:06:55 34° NNW 21:10:17 10° NE
RESURS DK-1 2.8 21:04:00 10° NW 21:07:47 43° WSW 21:09:14 29° SSW
NOSS 0 Rocket 4.0 21:06:08 10° NW 21:12:15 64° WSW 21:16:10 23° SSE
Cosmos 2322 Rocket 4.3 21:09:42 10° WNW 21:12:15 13° W 21:14:48 10° WSW
NOSS 8 (H) 4.0 21:11:19 10° WNW 21:14:08 58° SW 21:14:47 44° S
BREEZE-M DEB (TANK) 3.9 21:08:42 10° W 21:15:09 38° SSW 21:19:52 10° SE
Cosmos 2084 4.5 21:11:46 10° NW 21:15:47 45° NNE 21:19:46 10° E
Cosmos 1975 3.2 21:12:17 10° NNW 21:15:51 47° W 21:17:20 29° SSW
Intercosmos 24 3.8 21:13:57 10° N 21:18:11 73° ENE 21:19:53 30° SSE
MetOp-A 3.8 21:16:05 26° SSE 21:18:55 82° WSW 21:23:36 10° NNW
SL-16 R/B 3.3 21:13:32 10° NNW 21:18:58 43° NE 21:24:24 10° ESE
Lacrosse 4 Rocket 3.0 21:25:45 17° SE 21:26:39 18° ESE 21:29:28 10° ENE
ISS -1.7 21:26:28 10° WSW 21:27:25 15° WSW 21:27:25 15° WSW
SAR-Lupe-2 4.4 21:29:02 28° SW 21:30:03 34° W 21:33:09 10° NNW
CZ-2C R/B 4.3 21:26:48 10° N 21:31:07 50° WNW 21:34:12 18° SW
Cosmos 2237 Rocket 2.2 21:26:11 10° NW 21:31:53 74° WSW 21:35:41 22° SSE
Cosmos 841 Rocket 3.4 21:29:04 24° SSW 21:32:20 82° ESE 21:37:37 10° NNE
Cosmos 2279 Rocket 4.4 21:29:54 18° SSW 21:34:35 60° WNW 21:40:48 10° N
Meteor 1-11 Rocket 4.0 21:29:58 10° NNW 21:35:35 59° W 21:38:54 24° SSW
Cosmos 1980 3.7 21:30:17 10° NW 21:35:55 66° WSW 21:39:29 23° SSE
Cosmos 1812 Rocket 3.6 21:33:38 27° SSW 21:36:02 77° WNW 21:40:29 10° N
NOSS 8 (E) 4.2 21:34:38 10° WNW 21:37:28 51° SW 21:38:00 44° S
COSMOS 2428 3.6 21:34:58 10° NW 21:40:05 34° WSW 21:42:51 22° SSW
CZ-2C R/B 2.6 21:37:19 24° S 21:40:33 77° WSW 21:45:47 10° NNW
ACS3 Solar Sail 2.7 21:35:25 10° NNE 21:40:53 36° E 21:45:00 16° SSE
CZ-4C R/B 4.4 21:37:58 10° NE 21:40:55 27° E 21:42:10 21° SE
Meteor 2-4 Rocket 4.0 21:41:22 23° SSE 21:44:37 56° E 21:50:04 10° NNE
Meteor 1-10 Rocket 4.4 21:40:49 23° SSW 21:44:44 82° WNW 21:50:44 10° NNE
Cosmos 2227 Rocket 3.5 21:44:30 18° SSE 21:47:32 28° ESE 21:52:17 10° NE
Meteor 2-20 4.4 21:45:33 23° SSW 21:49:34 88° W 21:55:42 10° NNE
Okean 3 Rocket 4.3 21:46:00 10° N 21:50:25 50° ENE 21:53:40 17° SE
NOSS 8 (F) 4.5 21:49:58 10° WNW 21:52:45 41° SW 21:53:03 40° SSW
Cosmos 1271 Rocket 4.1 21:52:42 15° WSW 21:54:44 25° WNW 21:57:38 10° N
CZ-4C R/B 3.7 21:49:36 10° WNW 21:55:04 45° NNE 22:02:09 10° E
Cosmos 192 4.3 21:51:10 10° NNW 21:56:07 81° WSW 21:59:23 21° SSE
Cosmos 2221 3.4 21:54:54 19° SW 21:57:28 38° WNW 22:01:26 10° N
GP-B 3.7 21:54:58 10° N 21:59:10 47° W 22:01:32 23° SW
Cosmos 2263 Rocket 3.8 21:56:11 14° SE 21:59:27 23° ESE 22:03:41 10° NE
Meteor 1-27 Rocket 3.8 21:56:56 23° SSW 22:00:42 90° NW 22:06:28 10° NNE
Cosmos 1842 Rocket 4.0 22:01:31 24° SSE 22:03:55 55° E 22:08:15 10° NNE
Cosmos 1238 Rocket 2.8 22:02:31 29° S 22:04:29 89° WNW 22:08:55 10° NNE
Cosmos 1805 Rocket 4.3 22:06:09 10° N 22:10:24 49° ENE 22:13:49 15° SE
Sich 1 2.9 22:09:35 10° N 22:13:46 83° ENE 22:16:18 23° SSE
Iridium 4 Rocket 3.8 22:11:57 22° S 22:15:47 82° E 22:21:38 10° N
Landsat 5 3.3 22:12:47 10° NNE 22:16:57 88° ESE 22:19:05 27° SSW
CZ-2C R/B 3.6 22:11:21 10° NNE 22:17:01 64° WNW 22:21:10 19° SW
Cosmos 2297 Rocket 2.2 22:17:12 21° SSW 22:21:04 85° ESE 22:26:46 10° NE
Cosmos 1655 Rocket 4.2 22:16:25 10° NNW 22:22:31 59° W 22:26:42 21° SSW
Cosmos 1758 3.1 22:19:26 10° N 22:23:05 77° ENE 22:25:11 24° SSE
USA 234 3.2 22:18:56 10° ENE 22:25:28 68° SSE 22:32:00 10° WSW
Alouette 2 Rocket 4.3 22:30:11 10° NNW 22:33:33 34° W 22:35:30 22° SSW
Cosmos 1408 Rocket 3.5 22:30:46 10° N 22:35:05 80° E 22:38:12 18° SSE
ATLAS 2AS CENTAUR R/B 2.9 22:28:23 10° NW 22:35:13 74° NNE 22:42:01 10° ESE
Cosmos 1340 Rocket 2.9 22:32:35 10° N 22:36:26 70° ENE 22:39:16 17° SSE
Meteor 2-10 Rocket 4.0 22:31:57 10° NNW 22:37:16 53° W 22:40:59 20° SSW
SeaSat 1 3.1 22:34:43 22° SSW 22:37:18 38° WSW 22:41:53 10° NW
Iridium 45 4.5 22:37:58 26° S 22:39:52 78° E 22:43:18 10° N
SL-14 R/B 3.2 22:38:08 25° S 22:40:17 74° E 22:44:06 10° NNE
Cosmos 1125 Rocket 3.5 22:38:29 10° NNW 22:43:49 79° WSW 22:48:47 12° SSE
BlueWalker 3 2.9 22:43:33 24° S 22:44:15 26° SSE 22:47:16 10° E
Cosmos 1066 Rocket 4.2 22:40:54 21° SSW 22:44:38 77° WNW 22:50:13 10° NNE
DELTA 2 DEB (DPAF) 3.7 22:50:20 10° N 22:53:53 63° WNW 22:55:55 23° SW
Meteor 1-18 Rocket 4.2 22:49:51 20° SSW 22:53:54 82° WNW 22:59:36 10° NNE
Cosmos 2084 3.4 22:50:26 10° WNW 22:54:30 56° SW 22:58:31 10° SSE
Cosmos 1814 Rocket 4.0 22:59:05 19° SSW 23:02:54 80° WNW 23:08:11 10° NNE
Cosmos 1953 2.9 22:59:25 10° N 23:02:59 48° ENE 23:06:31 10° SSE
SL-16 R/B 2.4 22:57:44 10° NW 23:03:17 55° WSW 23:08:40 11° S
Lacrosse 4 Rocket 1.3 23:01:08 19° SW 23:03:55 80° NW 23:08:02 10° NE
BREEZE-M DEB (TANK) 3.9 23:07:01 21° S 23:07:09 21° S 23:10:53 10° SE
CZ-2D R/B 4.4 23:04:26 10° NE 23:08:07 18° E 23:11:48 10° SE
IDEFIX/ARIANE 42P 3.1 23:03:04 10° NNE 23:08:12 53° E 23:12:47 13° S
Cosmos 2219 4.1 23:04:46 14° S 23:09:15 39° ESE 23:14:27 10° NE
NPP 4.4 23:08:10 10° NNE 23:13:23 47° E 23:18:30 10° S
CZ-4C R/B 4.2 23:10:42 10° N 23:13:43 31° WNW 23:15:55 16° WSW
Cosmos 2237 Rocket 3.9 23:11:29 10° WNW 23:15:01 17° W 23:17:27 13° SW
H-2A R/B 4.5 23:12:16 10° NE 23:15:55 18° E 23:19:35 10° SE
Cosmos 1633 Rocket 3.6 23:13:12 10° N 23:17:28 56° ENE 23:21:43 10° SSE
Cosmos 1151 Rocket 3.0 23:15:33 18° SSW 23:18:39 75° WNW 23:23:00 10° N
Cosmos 1500 Rocket 4.0 23:15:24 10° NNW 23:19:39 46° W 23:22:48 17° SSW
S3M 4.2 23:14:46 12° S 23:20:29 72° E 23:26:37 10° NNE
PSLV R/B 4.0 23:17:45 10° N 23:21:36 62° WNW 23:24:24 18° SSW
CZ-2C R/B 4.5 23:18:46 11° WSW 23:21:39 16° W 23:24:44 10° NW
ACS3 Solar Sail 2.1 23:17:40 10° N 23:23:30 56° WNW 23:28:30 14° SW
Meteor 1-22 Rocket 4.3 23:18:52 10° NNW 23:24:47 81° WSW 23:30:23 10° S
CENTAUR R/B 4.2 23:21:06 10° SSE 23:25:26 23° ESE 23:30:30 10° ENE
In-Cosmos 22 4.5 23:23:38 16° SSW 23:28:05 61° WNW 23:33:44 10° N
Cosmos 2315 Rocket 4.3 23:22:22 10° S 23:28:40 68° E 23:34:57 10° NNE
Cosmos 2227 Rocket 2.3 23:26:17 14° SW 23:31:08 73° NW 23:36:50 10° NNE
H-2A R/B 4.0 23:31:31 10° SE 23:34:43 31° ENE 23:37:58 10° N
Envisat 4.4 23:31:12 10° NNE 23:35:46 33° E 23:40:19 10° SSE
Cosmos 2263 Rocket 2.2 23:37:50 14° SW 23:42:43 86° WNW 23:48:20 10° NE
BREEZE-M DEB (TANK) 3.3 23:35:42 10° WSW 23:43:48 40° S 23:47:01 10° ESE
MSX 3.9 23:38:12 10° NNE 23:44:01 90° WNW 23:49:33 11° SSW
CZ-4C R/B 3.0 23:37:46 10° NW 23:44:04 80° NE 23:52:15 10° SE
Cosmos 1709 Rocket 4.1 23:38:54 10° NNW 23:44:58 62° W 23:51:06 10° S
SL-16 R/B 4.4 23:42:27 10° ESE 23:47:58 34° NE 23:53:28 10° N
Cosmos 1666 Rocket 3.6 23:44:35 10° NNW 23:49:01 68° W 23:53:25 10° S
Cosmos 1943 3.2 23:43:31 10° NW 23:49:03 60° WSW 23:54:33 10° SSE
Meteor 1-15 Rocket 4.4 23:44:57 10° NNW 23:50:53 74° W 23:56:46 10° S
Cosmos 1867 3.5 23:45:42 10° NW 23:51:09 70° SW 23:56:34 10° SE
Cosmos 1743 Rocket 4.4 23:48:48 10° NNW 23:52:43 34° W 23:56:12 12° SSW
NOSS 7 (H) 4.4 23:51:48 10° WNW 23:54:36 40° SW 23:57:29 10° SSE
